Location: Chandrammap?lem
(16.9200°N, 81.0051°E)
Time: 12:49:44
(UTC+00:00)

OAO 3 Rocket - Pass Details

Date: 29 May 2024
Orbit: 622 x 671 km, 35.0° (Epoch: 16 June)

Event Time Altitude Azimuth Distance (km) Brightness Sun altitude
Exits shadow 22:51:12 26° 223° (SW) 1,305 4.1 -16.0°
Maximum altitude 22:51:26 26° 218° (SW) 1,301 4.2 -15.9°
Drops below altitude 10° 22:55:27 10° 161° (SSE) 2,072 5.6 -15.1°
Sets 22:58:08 0° 149° (SSE) 2,977 6.6 -14.5°
